SCP
0 0 0 0 0 0 0 0 0 0 0 0 0 0 0 0 0 0 0 0 0 0 0 0 0 0 0 0 1 1 1 1 1 1 1 1 1 0
0 0 0 0 0 0 0 0 0 0 0 0 0 0 0 0 0 0 0 0 0 0 0 0 0 0 0 0 0 0 0 0 1 1 1 1 0 0
0 0 0 0 0 0 0 0 0 0 0 0 0 0 0 0 0 0 0 0 0 0 0 0 0 0 0 0 0 0 0 0 0 0 0 0 0 0
0 0 0 0 0 0 0 0 0 0 0 0 0 0 0 0 0 0 0 0 0 0 0 0 0 0 0 0 0 0 0 0 0 0 0 0 0 0
0 0 0 0 0 0 0 0 0 0 0 0 0 0 0 0 0 0 0 0 0 0 0 0 0 0 0 0 0 0 0 0 0 0 0 0 0 0
0 0 0 0 0 0 0 0 0 0 0 0 0 0 0 0 0 0 0 0 0 0 0 0 0 0 0 0 0 0 0 0 0 0 0 0 0 0
0 0 0 0 0 0 0 0 0 0 0 0 0 0 0 0 0 0 0 0 0 0 0 0 0 0 0 0 0 0 0 0 0 0 0 0 0 0
0 0 0 0 0 0 0 0 0 0 0 0 0 0 0 0 0 0 0 0 0 0 0 0 0 0 0 0 0 0 0 0 0 0 0 0 0 0
0 0 0 0 0 0 0 0 0 0 0 0 0 0 0 0 0 0 0 0 0 0 0 0 0 0 0 0 0 0 0 0 0 0 0 0 0 0
0 0 0 0 0 0 0 0 0 0 0 0 0 0 0 0 0 0 0 0 0 0 0 0 0 0 0 0 0 0 0 0 0 0 0 0 0 0
0 0 0 0 0 0 0 0 0 0 0 0 0 0 0 0 0 0 0 0 0 0 0 0 0 0 0 0 0 0 0 0 0 0 0 0 0 0
0 0 0 0 0 0 0 0 0 0 0 0 0 0 0 0 0 0 0 0 0 0 0 0 0 0 0 0 0 0 0 0 0 0 0 0 0 0
0 0 0 0 0 0 0 0 0 0 0 0 0 0 0 0 0 0 0 0 0 0 0 0 0 0 0 0 0 0 0 0 0 0 0 0 0 0
0 0 0 0 0 0 0 0 0 0 0 0 0 0 0 0 0 0 0 0 0 0 0 0 0 0 0 0 0 0 0 0 0 0 0 0 0 0
0 0 0 0 0 0 0 0 0 0 0 0 0 0 0 0 0 0 0 0 0 0 0 0 0 0 0 0 0 0 0 0 0 0 0 0 0 0
0 0 0 0 0 0 0 0 0 0 0 0 0 0 0 0 0 0 0 0 0 0 0 0 0 0 0 0 0 0 0 0 0 0 0 0 0 0
0 0 0 0 0 0 0 0 0 0 0 0 0 0 0 0 0 0 0 0 0 0 0 0 0 0 0 0 0 0 0 0 0 0 0 0 0 0
0 0 0 0 0 0 0 0 0 0 0 0 0 0 0 0 0 0 0 0 0 0 0 0 0 0 0 0 0 0 0 0 0 0 0 0 0 0
0 0 0 0 0 0 0 0 0 0 0 0 0 0 0 0 0 0 0 0 0 0 0 0 0 0 0 0 0 0 0 0 0 0 0 0 0 0
0 0 0 0 0 0 0 0 0 0 0 0 0 0 0 0 0 0 0 0 0 0 0 0 0 0 0 0 0 0 0 0 0 0 0 0 0 0
0 0 0 0 0 0 0 0 0 0 0 0 0 0 0 0 0 0 0 0 0 0 0 0 0 0 0 0 0 0 0 0 0 0 0 0 0 0
0 0 0 0 0 0 0 0 0 0 0 0 0 0 0 0 0 0 0 0 0 0 0 0 0 0 0 0 0 0 0 0 0 0 0 0 0 0
0 0 0 0 0 0 0 0 0 0 0 0 0 0 0 0 0 0 0 0 0 0 0 0 0 0 0 0 0 0 0 0 0 0 0 0 0 0
Wind_Speed
5 6 6 7 7 7 7 7 8 11 12 10 8 7 6 6 9 8 9 14 18 19 18 18 18 17 15 13 11 10 9 9 11 13 14 15 16 16
4 7 7 7 7 7 7 7 8 9 10 7 9 10 10 9 12 9 9 18 19 19 18 17 15 15 13 12 11 11 11 11 12 14 15 16 17 17
7 8 11 11 9 8 8 8 8 8 11 9 8 9 10 10 10 9 9 10 10 16 16 14 12 11 11 11 12 12 13 14 15 17 18 18 18 18
9 10 12 11 12 10 9 9 9 9 9 12 9 8 10 10 11 11 10 9 8 11 10 8 6 6 8 10 12 14 15 16 18 19 20 20 20 19
10 12 14 14 13 11 11 10 9 9 7 9 10 8 8 9 10 11 10 7 6 5 3 3 4 6 9 11 14 16 17 18 20 22 22 22 22 21
11 12 14 14 14 13 12 12 10 8 8 9 10 10 10 9 8 8 7 4 3 2 2 2 4 8 11 14 17 20 22 23 24 25 25 24 22 20
13 14 13 17 19 15 11 9 9 8 8 9 10 10 10 8 7 5 6 3 2 1 1 2 3 4 7 12 17 22 26 28 29 29 28 26 23 20
14 14 14 15 16 18 19 18 16 12 11 10 10 11 12 10 7 6 4 2 2 2 1 2 2 5 6 7 17 27 31 33 34 34 32 29 25 22
13 12 11 12 15 12 14 18 17 20 20 15 14 14 13 10 7 6 4 3 2 1 1 2 3 5 6 10 24 30 26 25 30 34 33 29 25 21
12 13 13 13 12 13 12 12 14 14 15 12 12 13 12 9 6 4 3 4 3 2 1 2 3 4 7 10 21 28 17 5 17 27 29 27 23 20
12 12 12 12 15 16 13 12 14 12 13 13 11 7 6 4 3 5 5 3 2 1 2 2 3 4 5 9 15 25 23 16 18 24 26 25 23 19
11 11 14 13 15 16 12 10 12 11 9 7 3 7 8 9 9 5 3 2 2 1 2 2 3 4 4 6 11 13 15 24 26 24 25 25 24 16
9 9 8 14 17 17 14 9 10 10 5 2 5 7 8 8 8 7 5 3 3 2 3 2 3 4 4 5 8 13 14 14 15 20 24 26 23 18
9 8 9 16 18 16 10 8 7 3 2 4 6 7 7 7 7 8 9 8 8 8 7 5 4 5 3 5 6 9 13 14 14 15 16 27 31 31
9 16 18 18 15 9 8 7 4 5 5 7 8 7 7 6 6 7 8 9 11 11 11 11 9 7 8 8 7 8 8 13 14 14 15 16 15 15
10 13 16 14 10 8 6 6 6 7 7 8 8 7 6 6 6 6 6 6 8 10 12 13 12 12 12 13 11 12 11 9 11 13 15 16 14 13
12 7 6 7 7 6 6 7 7 7 8 7 7 7 6 6 7 6 7 7 8 9 10 10 12 12 14 12 13 13 13 13 12 12 14 16 13 11
10 7 7 7 7 7 6 7 7 7 7 7 7 6 6 6 7 7 7 7 8 9 9 8 8 10 13 14 15 13 12 13 12 13 12 14 13 10
6 7 7 7 7 6 6 7 7 7 7 7 7 7 7 7 7 7 7 7 8 8 8 7 7 9 13 13 12 14 11 11 11 12 11 11 12 10
7 7 7 8 7 7 6 6 6 6 7 7 7 7 6 7 7 7 7 8 8 8 9 8 9 10 10 9 7 9 12 10 11 12 11 11 12 15
8 7 7 8 7 7 6 6 6 6 7 7 6 6 6 7 7 7 7 10 9 9 10 9 9 11 9 8 9 9 11 13 11 9 10 11 11 10
9 8 8 8 8 8 7 6 6 6 6 6 6 6 5 6 7 8 7 8 8 9 10 8 8 9 10 11 11 11 11 10 11 13 11 6 5 7
9 9 8 8 8 7 7 7 7 6 6 6 6 5 5 5 5 6 7 8 8 9 9 9 9 10 11 11 11 10 12 10 9 11 12 16 21 22
Wind_Direction
300 301 298 292 286 277 269 264 274 290 292 288 287 278 275 276 277 281 278 283 287 284 280 277 272 267 261 257 254 253 250 244 237 232 229 232 236 240
292 302 303 299 293 283 272 266 258 268 278 279 281 286 286 285 285 286 285 290 288 284 279 274 265 257 247 243 242 242 241 240 238 237 235 235 237 240
302 307 307 304 295 288 282 273 265 261 272 280 277 283 281 279 285 285 283 281 277 278 276 271 260 243 237 240 243 244 243 242 240 238 237 236 237 239
301 305 305 303 294 289 282 277 273 263 268 282 287 289 284 283 284 285 285 281 270 273 274 269 256 242 247 253 254 253 251 247 245 242 240 239 238 239
297 301 300 298 292 287 283 280 275 272 268 282 291 289 284 282 285 284 279 272 262 252 252 259 264 268 268 266 263 259 252 245 241 239 239 238 238 238
299 297 294 290 285 283 281 277 276 277 282 285 287 287 284 283 277 278 278 254 237 222 237 260 277 283 279 274 268 263 255 246 239 234 231 230 231 233
304 299 293 289 285 284 282 281 283 283 283 281 281 282 282 280 273 264 267 242 202 202 244 253 273 278 279 277 275 270 263 252 240 230 224 221 221 222
305 301 296 292 293 294 294 293 289 287 285 279 278 276 277 274 267 258 248 205 204 177 240 265 270 282 284 282 287 286 273 254 237 224 215 211 210 210
298 297 295 294 297 289 288 291 290 285 279 275 273 270 270 266 256 246 220 197 166 119 259 272 285 292 301 307 312 309 291 255 226 209 201 198 196 196
295 291 289 290 288 287 287 285 283 282 278 273 265 264 263 259 242 224 159 120 100 59 348 287 308 302 314 320 325 333 334 261 189 180 177 177 176 179
300 294 291 286 287 292 294 290 290 290 290 285 279 272 259 235 161 133 136 130 115 59 6 324 321 309 316 332 340 354 23 64 115 138 148 152 153 155
306 301 298 294 294 299 299 292 290 296 310 322 8 53 65 71 74 78 98 100 98 70 10 357 345 337 336 339 353 4 24 53 79 103 122 132 137 134
305 306 302 302 304 303 298 284 278 287 306 14 65 64 62 61 59 58 57 66 83 64 12 19 13 5 360 342 3 18 28 41 58 73 84 94 98 106
310 309 308 310 311 308 304 295 296 300 83 77 71 65 65 65 65 68 71 72 71 69 52 55 54 30 28 33 23 18 35 40 51 63 72 76 78 78
319 321 322 320 320 319 337 5 45 75 80 77 72 69 70 75 78 78 77 76 72 69 65 63 67 61 59 63 55 38 47 44 46 59 64 65 69 76
328 322 322 325 336 348 8 44 61 70 79 81 80 78 74 70 67 67 74 77 81 77 69 66 65 67 70 66 66 61 58 60 54 61 68 66 61 62
330 327 336 345 360 16 41 60 67 72 76 81 83 81 76 72 67 62 71 76 79 83 80 72 69 70 68 68 70 67 69 68 64 66 74 75 67 67
339 347 353 357 6 22 46 63 68 72 77 81 82 78 74 73 74 71 71 76 81 81 81 81 84 85 81 63 49 73 74 76 77 76 78 87 87 84
352 360 2 5 13 27 48 65 73 76 80 84 83 79 74 72 74 77 77 78 79 77 71 67 72 82 87 85 53 41 76 83 85 84 83 87 92 94
4 6 8 10 18 32 50 65 75 78 82 86 85 80 73 73 76 79 80 83 83 80 73 65 65 68 73 82 77 53 54 84 91 92 91 89 89 91
5 9 12 15 21 31 45 59 69 77 84 89 88 82 73 71 74 78 82 79 83 84 81 75 80 87 86 81 79 70 63 63 75 93 105 104 103 101
8 10 13 18 23 29 39 52 63 71 80 86 89 86 78 70 71 77 84 86 85 88 89 86 85 85 85 88 91 91 88 79 68 66 64 72 110 121
8 8 10 14 21 25 33 45 55 64 72 80 86 90 86 76 73 79 88 93 95 95 93 88 83 82 88 96 99 95 88 83 78 72 63 73 87 93